• Join FlightAware (Why Join?)
  • Login
  • US Flag 
08:10AM EST


 

Airport Tracker/Info


-or-


 

Live Flight TrackerFlight Track Log ✈ EGF4039 ✈ 14-Apr-2013 ✈ KALO - KORD

Flight Track Log - Related Links

Times and Time Zones

All times are in EDT time to prevent confusion due to time zone crossing. See the EGF4039 flight status page for this flight to view local times or setup timezone preferences in your user account.

Time Position Orientation Groundspeed Altitude Reporting Facility
EDT Latitude Longitude Course Direction KTS MPH feet Rate Location/Type
05:19PM 42.5289 -92.3361 90° East 185 213 3,500  Level Chicago Center
05:20PM 42.5211 -92.2556 97° East 232 267 6,300 2,488 Climbing Chicago Center
05:21PM 42.5119 -92.1633 98° East 241 277 8,600 1,805 Climbing Chicago Center
05:22PM 42.5039 -92.0519 96° East 272 313 10,000 677 Climbing Chicago Center
05:23PM 42.4916 -91.7740 97° East  Level FlightAware Approximate
05:23PM 42.4953 -91.9158 95° East 330 380 10,000  Level Chicago Center
05:24PM 42.4833 -91.6518 90° East  Level FlightAware Approximate
05:24PM 42.4833 -91.7478 95° East 365 420 11,000  Level Chicago Center
05:25PM 42.4728 -91.6092 96° East 375 432 13,200 2,177 Climbing Chicago Center
05:26PM 42.4628 -91.4739 96° East 372 428 15,500 2,032 Climbing Chicago Center
05:27PM 42.4522 -91.3389 96° East 367 422 17,400 1,935 Climbing Chicago Center
05:28PM 42.4375 -91.1722 97° East 378 435 19,500 1,742 Climbing Chicago Center
05:29PM 42.4264 -91.0231 96° East 399 459 21,000 1,210 Climbing Chicago Center
05:30PM 42.4136 -90.8664 96° East 416 479 22,000 976 Climbing Chicago Center
05:31PM 42.4011 -90.7014 96° East 439 505 23,000 488 Climbing Chicago Center
05:32PM 42.4178 -90.5278 83° East 471 542 23,000  Level Chicago Center
05:33PM 42.4403 -90.3156 82° East 480 552 23,000 -387 Level Chicago Center
05:34PM 42.4575 -90.1369 82° East 483 556 22,200 -823 Descending Chicago Center
05:35PM 42.4764 -89.9650 81° East 473 544 21,300 -919 Descending Chicago Center
05:36PM 42.4939 -89.7847 82° East 457 526 20,300 -1,016 Descending Chicago Center
05:37PM 42.5100 -89.6144 83° East 456 525 19,200 -1,403 Descending Chicago Center
05:38PM 42.5119 -89.4514 89° East 443 510 17,400 -1,756 Descending Chicago Center
05:39PM 42.4889 -89.2953 101° East 424 488 15,600 -1,854 Descending Chicago Center
05:40PM 42.4631 -89.1228 101° East 407 468 13,600 -1,500 Descending Chicago Center
05:41PM 42.4478 -89.0003 100° East 341 392 12,500 -1,306 Descending Chicago Center
05:43PM 42.4322 -88.8975 102° East 287 330 10,900 -1,258 Descending Chicago Center
05:44PM 42.4156 -88.7936 102° East 283 326 9,900 -919 Descending Chicago Center
05:45PM 42.4006 -88.6806 100° East 302 348 9,000 -435 Descending Chicago Center
05:46PM 42.3681 -88.5581 110° East 296 341 9,000  Level Chicago Center
05:47PM 42.3261 -88.4706 123° Southeast 288 331 9,000 -194 Level Chicago Center
05:48PM 42.2822 -88.3836 124° Southeast 284 327 8,600 -871 Descending Chicago Center
05:49PM 42.2392 -88.2942 123° Southeast 284 327 7,200 -1,258 Descending Chicago Center
05:50PM 42.2006 -88.2117 122° Southeast 270 311 6,000 -1,113 Descending Chicago Center
05:51PM 42.1608 -88.1269 122° Southeast 235 270 4,900 -1,065 Descending Chicago Center